• In Hungary
  • List of Countries
  • For 7 days
  • Water Temperature
  • Satellite Maps
  • Weather Map
  • News
  • Weather Widgets
  • user-avatar
    Login

    Hourly Weather Borzechowo

    Today, 16 July, Monday

    Time Temperature Precipitation Wind Pressure Humidity
    00:00 +16°C° 0 mm 3 mps 750 mmHg 91%
    01:00 +16°C° 0 mm 3 mps 750 mmHg 91%
    02:00 +16°C° 0 mm 3 mps 750 mmHg 91%
    03:00 +16°C° 0 mm 3 mps 750 mmHg 91%
    04:00 +14°C° 0 mm 3 mps 749 mmHg 91%
    05:00 +17°C° 0 mm 3 mps 749 mmHg 85%
    06:00 +19°C° 0 mm 3 mps 749 mmHg 79%
    07:00 +21°C° 0 mm 4 mps 749 mmHg 73%
    08:00 +22°C° 0 mm 4 mps 749 mmHg 68%
    09:00 +25°C° 0 mm 4 mps 749 mmHg 63%
    10:00 +26°C° 0 mm 4 mps 749 mmHg 57%
    11:00 +26°C° 0.2 mm 5 mps 749 mmHg 57%
    12:00 +27°C° 0.2 mm 5 mps 748 mmHg 56%
    13:00 +27°C° 0.2 mm 5 mps 748 mmHg 55%
    14:00 +27°C° 0.3 mm 5 mps 748 mmHg 59%
    15:00 +26°C° 0.3 mm 5 mps 748 mmHg 64%
    16:00 +25°C° 0.3 mm 4 mps 747 mmHg 68%
    17:00 +23°C° 0.3 mm 4 mps 747 mmHg 73%
    18:00 +22°C° 0.3 mm 3 mps 747 mmHg 78%
    19:00 +21°C° 0.3 mm 3 mps 747 mmHg 84%
    20:00 +20°C° 0.2 mm 3 mps 747 mmHg 86%
    21:00 +19°C° 0.2 mm 3 mps 747 mmHg 88%
    22:00 +19°C° 0.2 mm 3 mps 747 mmHg 91%
    23:00 +18°C° 0.6 mm 3 mps 747 mmHg 92%

    Tomorrow, 17 July, Tuesday

    Time Temperature Precipitation Wind Pressure Humidity
    00:00 +18°C° 0.6 mm 3 mps 746 mmHg 93%
    01:00 +18°C° 0.6 mm 3 mps 746 mmHg 94%
    02:00 +18°C° 1 mm 3 mps 746 mmHg 95%
    03:00 +18°C° 1 mm 3 mps 746 mmHg 95%
    04:00 +18°C° 1 mm 4 mps 745 mmHg 95%
    05:00 +19°C° 0.7 mm 4 mps 745 mmHg 94%
    06:00 +19°C° 0.7 mm 4 mps 745 mmHg 92%
    07:00 +20°C° 0.7 mm 5 mps 745 mmHg 91%
    08:00 +21°C° 0.4 mm 5 mps 745 mmHg 88%
    09:00 +22°C° 0.4 mm 5 mps 745 mmHg 84%
    10:00 +23°C° 0.4 mm 4 mps 745 mmHg 80%
    11:00 +23°C° 1.4 mm 4 mps 745 mmHg 80%
    12:00 +25°C° 1.4 mm 4 mps 745 mmHg 80%
    13:00 +25°C° 1.4 mm 4 mps 745 mmHg 79%
    14:00 +23°C° 1.4 mm 4 mps 745 mmHg 83%
    15:00 +22°C° 1.4 mm 3 mps 745 mmHg 86%
    16:00 +22°C° 1.4 mm 3 mps 745 mmHg 90%
    17:00 +21°C° 1 mm 3 mps 745 mmHg 91%
    18:00 +21°C° 1 mm 3 mps 745 mmHg 92%
    19:00 +20°C° 1 mm 3 mps 745 mmHg 94%
    20:00 +20°C° 1 mm 3 mps 745 mmHg 94%
    21:00 +20°C° 1 mm 3 mps 745 mmHg 95%
    22:00 +19°C° 1 mm 3 mps 745 mmHg 96%
    23:00 +19°C° 0.9 mm 3 mps 745 mmHg 96%

    Day after tomorrow, 18 July, Wednesday

    Time Temperature Precipitation Wind Pressure Humidity
    00:00 +19°C° 0.9 mm 3 mps 745 mmHg 96%
    01:00 +19°C° 0.9 mm 3 mps 745 mmHg 96%
    02:00 +19°C° 0.4 mm 3 mps 745 mmHg 96%
    03:00 +19°C° 0.4 mm 3 mps 745 mmHg 96%
    04:00 +18°C° 0.4 mm 3 mps 745 mmHg 96%
    05:00 +19°C° 0.4 mm 3 mps 745 mmHg 95%
    06:00 +20°C° 0.4 mm 3 mps 745 mmHg 94%
    07:00 +20°C° 0.4 mm 3 mps 745 mmHg 93%
    08:00 +21°C° 0.6 mm 3 mps 745 mmHg 90%
    09:00 +22°C° 0.6 mm 4 mps 745 mmHg 87%
    10:00 +23°C° 0.6 mm 4 mps 746 mmHg 84%
    11:00 +23°C° 0.9 mm 5 mps 746 mmHg 83%
    12:00 +25°C° 0.9 mm 5 mps 746 mmHg 81%
    13:00 +25°C° 0.9 mm 5 mps 746 mmHg 80%
    14:00 +23°C° 0.4 mm 5 mps 746 mmHg 81%
    15:00 +23°C° 0.4 mm 5 mps 747 mmHg 83%
    16:00 +22°C° 0.4 mm 5 mps 747 mmHg 84%
    17:00 +21°C° 0.2 mm 5 mps 747 mmHg 86%
    18:00 +20°C° 0.2 mm 5 mps 747 mmHg 88%
    19:00 +20°C° 0.2 mm 4 mps 747 mmHg 91%
    20:00 +19°C° 0.2 mm 4 mps 747 mmHg 92%
    21:00 +19°C° 0.2 mm 4 mps 748 mmHg 94%
    22:00 +18°C° 0.2 mm 3 mps 748 mmHg 95%
    23:00 +18°C° 0 mm 3 mps 748 mmHg 95%

    19 July, Thursday

    Time Temperature Precipitation Wind Pressure Humidity
    00:00 +18°C° 0 mm 3 mps 748 mmHg 95%
    01:00 +18°C° 0 mm 3 mps 748 mmHg 96%
    02:00 +17°C° 0 mm 3 mps 748 mmHg 96%
    03:00 +17°C° 0 mm 3 mps 748 mmHg 96%
    04:00 +17°C° 0 mm 3 mps 748 mmHg 96%
    05:00 +18°C° 0 mm 4 mps 748 mmHg 92%
    06:00 +19°C° 0 mm 5 mps 748 mmHg 88%
    07:00 +20°C° 0 mm 5 mps 748 mmHg 84%
    08:00 +21°C° 0 mm 5 mps 749 mmHg 79%
    09:00 +22°C° 0 mm 5 mps 749 mmHg 74%
    10:00 +23°C° 0 mm 5 mps 749 mmHg 69%
    11:00 +23°C° 0 mm 5 mps 749 mmHg 66%
    12:00 +24°C° 0 mm 6 mps 749 mmHg 62%
    13:00 +26°C° 0 mm 6 mps 749 mmHg 59%
    14:00 +26°C° 0 mm 6 mps 749 mmHg 60%
    15:00 +24°C° 0 mm 6 mps 749 mmHg 60%
    16:00 +25°C° 0 mm 5 mps 750 mmHg 61%
    17:00 +23°C° 0 mm 5 mps 750 mmHg 66%
    18:00 +22°C° 0 mm 4 mps 750 mmHg 71%
    19:00 +21°C° 0 mm 3 mps 749 mmHg 76%
    20:00 +19°C° 0 mm 3 mps 750 mmHg 80%
    21:00 +18°C° 0 mm 3 mps 750 mmHg 85%
    22:00 +16°C° 0 mm 3 mps 750 mmHg 89%
    23:00 +16°C° 0 mm 3 mps 750 mmHg 89%

    20 July, Friday

    Time Temperature Precipitation Wind Pressure Humidity
    00:00 +16°C° 0 mm 3 mps 750 mmHg 88%
    01:00 +14°C° 0 mm 3 mps 750 mmHg 88%
    02:00 +14°C° 0 mm 3 mps 750 mmHg 89%
    03:00 +14°C° 0 mm 3 mps 750 mmHg 90%
    04:00 +13°C° 0 mm 3 mps 750 mmHg 90%
    05:00 +16°C° 0 mm 3 mps 750 mmHg 84%
    06:00 +17°C° 0 mm 3 mps 750 mmHg 77%
    07:00 +19°C° 0 mm 4 mps 750 mmHg 70%
    08:00 +20°C° 0 mm 4 mps 750 mmHg 64%
    09:00 +22°C° 0 mm 3 mps 750 mmHg 58%
    10:00 +24°C° 0 mm 3 mps 750 mmHg 52%
    11:00 +24°C° 0 mm 3 mps 750 mmHg 50%
    12:00 +25°C° 0 mm 3 mps 750 mmHg 47%
    13:00 +26°C° 0 mm 3 mps 750 mmHg 45%
    14:00 +26°C° 0 mm 3 mps 750 mmHg 46%
    15:00 +25°C° 0 mm 3 mps 750 mmHg 48%
    16:00 +25°C° 0 mm 3 mps 750 mmHg 49%
    17:00 +24°C° 0 mm 3 mps 750 mmHg 56%
    18:00 +21°C° 0 mm 3 mps 750 mmHg 62%
    19:00 +20°C° 0 mm 2 mps 749 mmHg 69%
    20:00 +18°C° 0 mm 2 mps 749 mmHg 74%
    21:00 +18°C° 0 mm 1 mps 749 mmHg 78%
    22:00 +15°C° 0 mm 1 mps 750 mmHg 82%
    23:00 +15°C° 0 mm 1 mps 749 mmHg 83%

    21 July, Saturday

    Time Temperature Precipitation Wind Pressure Humidity
    00:00 +14°C° 0 mm 1 mps 749 mmHg 84%
    01:00 +14°C° 0 mm 1 mps 749 mmHg 84%
    02:00 +14°C° 0 mm 1 mps 749 mmHg 85%
    03:00 +13°C° 0 mm 1 mps 749 mmHg 85%
    04:00 +13°C° 0 mm 1 mps 749 mmHg 85%
    05:00 +15°C° 0 mm 1 mps 749 mmHg 79%
    06:00 +18°C° 0 mm 1 mps 749 mmHg 73%
    07:00 +20°C° 0 mm 1 mps 749 mmHg 67%
    08:00 +21°C° 0 mm 1 mps 749 mmHg 62%
    09:00 +23°C° 0 mm 1 mps 749 mmHg 56%
    10:00 +25°C° 0 mm 1 mps 749 mmHg 50%
    11:00 +26°C° 0 mm 1 mps 749 mmHg 47%
    12:00 +26°C° 0 mm 1 mps 748 mmHg 45%
    13:00 +27°C° 0 mm 1 mps 748 mmHg 42%
    14:00 +27°C° 0 mm 2 mps 748 mmHg 43%
    15:00 +27°C° 0 mm 2 mps 748 mmHg 45%
    16:00 +26°C° 0 mm 2 mps 748 mmHg 47%
    17:00 +25°C° 0 mm 3 mps 747 mmHg 54%
    18:00 +22°C° 0 mm 3 mps 747 mmHg 62%
    19:00 +21°C° 0 mm 3 mps 747 mmHg 70%
    20:00 +19°C° 0 mm 3 mps 747 mmHg 73%
    21:00 +18°C° 0 mm 2 mps 747 mmHg 77%
    22:00 +17°C° 0 mm 2 mps 747 mmHg 80%
    23:00 +16°C° 0 mm 2 mps 747 mmHg 81%
    Show more